sat.trackr.live / text

‹ back to catalog

STARLINK-34829

NORAD 65470 · 2025-195N

PAYLOAD ACTIVE UNKNOWN

§ Identity

Operator
Country
US
Launch date
2025-09-03
Launch site
AFETR
Launch vehicle
Mass (kg)
RCS (m²)

Purposes: comms

External: N2YO · Heavens-Above · Gunter

§ Orbital elements

Epoch: 2026-09-20T21:26:09.976128Z

Period
94.01 min
Inclination
53.1571°
Eccentricity
0.0001527
Mean motion
15.31705092 rev/d
Perigee alt
469.7 km
Apogee alt
471.8 km
Semi-major
6,848.9 km
B*
5.1810e-4
RAAN
69.8185°
Arg perigee
92.3165°
Mean anomaly
267.8011°
Rev number
5,990

§ Raw data

STARLINK-348291 65470U 25195N   26263.89317102  .00015749  00000+0  51810-3 0  99972 65470  53.1571  69.8185 0001527  92.3165 267.8011 15.31705092 59905

JSON: /api/v1/satellites/65470 · /tle

For live sub-satellite position, see the globe view (requires WebGL).

§ Visibility from observer

Set your observer location to see the next 7 days of passes ≥ 10°. The values pass through the URL so the page stays shareable.

No JS? Fill the form by hand. The geolocation button needs JavaScript.